MET-2/21 (22782 NORAD) Tracking and Keplerian Element Data

This shows tracking and keplerian element data for the satellite.

Feedback or suggestion? Click here.




ElementValue
Catalog22782
NameMET-2/21
Epoch Orbit47515
Epoch Day321.35740387
Epoch Year2022
RAAN252.8664
Inclination82.5494
Eccentricity0.0020987
Argument of Perigee279.6014
Mean Anonmoly195.3529
Mean Motion13.83863126
Decay Rate1.7E-07
L11 22782U 93055A 22321.35740387 .00000017 00000-0 21901-5 0 9996
L22 22782 82.5494 252.8664 0020987 279.6014 195.3529 13.83863126475150



Live tracking and technical data element details for MET-2/21 (NORAD 22782). MET-2/21 can be tracked NOW for your location showing map with azimuth and elevation plus other details from your city location.







IsCatalogInMostPopularTable: catalog: 22782, numindb: 432
Update: records affected: 1



GetName: 22782 MET-2/21

Hit Count: updated at: Mon, 28 Nov 2022 03:44:38 GMT